Regional Weather Roundup
Issued by NWS

Home | Current Version | Previous Version | Graphics & Text | Print | Product List | Glossary On
Versions: 1 2 3 4 5 6 7 8 9 10 11 12 13 14 15 16 17 18 19 20 21 22 23 24 25 26 27 28 29 30 31 32 33 34 35 36 37 38 39 40 41 42 43 44 45 46 47 48 49 50
000
ASUS44 KMEG 231800
RWRTN
TENNESSEE HOURLY STATE WEATHER ROUNDUP
NATIONAL WEATHER SERVICE MEMPHIS TN
1200 PM CST SUN NOV 23 2014

TNZ002-004-019-021-049-052-054-088>092-231900-
WEST TENNESSEE

CITY           SKY/WX    TMP DP  RH WIND       PRES   REMARKS
MEMPHIS INTL   LGT RAIN  60  57  89 SE10      29.47F FOG
NWS MEMPHIS      N/A     58 N/A N/A MISG        N/A
JACKSON        RAIN      57  55  93 SE6       29.55F FOG
DYERSBURG      CLOUDY    57  46  67 SE6       29.55F
UNION CITY     CLOUDY    55  54  94 SE7       29.56F
PARIS          CLOUDY    54  54 100 SE7       29.60F
LEXINGTON      CLOUDY    55  54  94 SE5       29.58F
SAVANNAH       CLOUDY    55  55 100 SE14      29.57F
$$

TNZ008-025-027-028-033-062-065-066-231900-
NORTH MIDDLE TENNESSEE

CITY           SKY/WX    TMP DP  RH WIND       PRES   REMARKS
NASHVILLE      LGT RAIN  58  55  90 SE15      29.67F
CLARKSVILLE    LGT RAIN  58  55  90 SE18G25   29.63F
COOKEVILLE     CLOUDY    57  54  88 S14       29.73F
CROSSVILLE     CLOUDY    55  50  83 SE12      29.80F
$$

TNZ061-075-076-078-094-096-097-231900-
SOUTH MIDDLE TENNESSEE

CITY           SKY/WX    TMP DP  RH WIND       PRES   REMARKS
FAYETTEVILLE   CLOUDY    55  54  94 N14       29.68F
TULLAHOMA      CLOUDY    55  52  88 SE13      29.72F
WINCHESTER     CLOUDY    57  54  88 SE17      29.72F
MCMINNVILLE    CLOUDY    61  57  88 VRB3      29.72F
SHELBYVILLE    CLOUDY    61  55  82 SE17      29.69F
$$

TNZ017-018-042-046-047-231900-
NORTHEAST TENNESSEE

CITY           SKY/WX    TMP DP  RH WIND       PRES   REMARKS
TRI CITIES     LGT RAIN  55  50  83 E7        29.94F
ELIZABETHTON   LGT RAIN  52  46  82 E13       29.94F
$$

TNZ012-013-036-069-073-074-231900-
CENTRAL EAST TENNESSEE

CITY           SKY/WX    TMP DP  RH WIND       PRES   REMARKS
KNOXVILLE      RAIN      50  45  83 CALM      29.85F
OAK RIDGE      LGT RAIN  50  47  89 NE5       29.86F
GATLINBURG     MOCLDY    46  45  93 W3        29.84F
MORRISTOWN     PTCLDY    54  52  94 E8        29.86F
$$

TNZ083-085-099-231900-
SOUTHEAST TENNESSEE

CITY           SKY/WX    TMP DP  RH WIND       PRES   REMARKS
CHATTANOOGA    LGT RAIN  50  48  93 NW7       29.83F VSB 1
$$

SKY/WX REPORTED AS FAIR MEANS FEW OR NO CLOUDS BELOW
12 THOUSAND FEET.




USA.gov is the U.S. government's official web portal to all federal, state and local government web resources and services.